owner,sensor,date,latitude,longitude,vertical_datum,sea_water_practical_salinity,qcFlag 
DISL,ioos:station:DISL:MHPA:1,2013-11-01T00:00:00Z,30.6671,-87.9365,4.832,3.2,1111122 
DISL,ioos:station:DISL:MHPA:1,2013-11-01T00:30:00Z,30.6671,-87.9365,4.87,3.22,1111122 
DISL,ioos:station:DISL:MHPA:1,2013-11-01T01:00:00Z,30.6671,-87.9365,4.91,3.23,1111122 
DISL,ioos:station:DISL:MHPA:1,2013-11-01T01:30:00Z,30.6671,-87.9365,5.023,3.23,1111122 
DISL,ioos:station:DISL:MHPA:1,2013-11-01T02:00:00Z,30.6671,-87.9365,5.096,3.16,1111122 
DISL,ioos:station:DISL:MHPA:1,2013-11-01T02:30:00Z,30.6671,-87.9365,5.115,3.18,1111122 
DISL,ioos:station:DISL:MHPA:1,2013-11-01T03:00:00Z,30.6671,-87.9365,5.196,3.19,1111122 
DISL,ioos:station:DISL:MHPA:1,2013-11-01T03:30:00Z,30.6671,-87.9365,5.254,3.18,1111122 
DISL,ioos:station:DISL:MHPA:1,2013-11-01T04:00:00Z,30.6671,-87.9365,5.249,3.24,1111122 
DISL,ioos:station:DISL:MHPA:1,2013-11-01T04:30:00Z,30.6671,-87.9365,5.267,3.22,1111122 
DISL,ioos:station:DISL:MHPA:1,2013-11-01T05:00:00Z,30.6671,-87.9365,5.317,3.22,1111122 
DISL,ioos:station:DISL:MHPA:1,2013-11-01T05:30:00Z,30.6671,-87.9365,5.317,3.23,1111122 
DISL,ioos:station:DISL:MHPA:1,2013-11-01T06:00:00Z,30.6671,-87.9365,5.266,3.22,1111122 
DISL,ioos:station:DISL:MHPA:1,2013-11-01T06:30:00Z,30.6671,-87.9365,5.213,3.2,1111122 
DISL,ioos:station:DISL:MHPA:1,2013-11-01T07:00:00Z,30.6671,-87.9365,5.147,3.16,1111122 
DISL,ioos:station:DISL:MHPA:1,2013-11-01T07:30:00Z,30.6671,-87.9365,5.047,3.18,1111122 
DISL,ioos:station:DISL:MHPA:1,2013-11-01T08:00:00Z,30.6671,-87.9365,4.887,3.18,1111122 
DISL,ioos:station:DISL:MHPA:1,2013-11-01T08:30:00Z,30.6671,-87.9365,4.733,3.17,1111122 
DISL,ioos:station:DISL:MHPA:1,2013-11-01T09:00:00Z,30.6671,-87.9365,4.663,3.1,1111122 
DISL,ioos:station:DISL:MHPA:1,2013-11-01T09:30:00Z,30.6671,-87.9365,4.525,3.18,1111122 
DISL,ioos:station:DISL:MHPA:1,2013-11-01T10:00:00Z,30.6671,-87.9365,4.512,3.19,1111122 
DISL,ioos:station:DISL:MHPA:1,2013-11-01T10:30:00Z,30.6671,-87.9365,4.482,3.17,1111122 
DISL,ioos:station:DISL:MHPA:1,2013-11-01T11:00:00Z,30.6671,-87.9365,4.39,3.19,1111122 
DISL,ioos:station:DISL:MHPA:1,2013-11-01T11:30:00Z,30.6671,-87.9365,4.33,3.19,1111122 
DISL,ioos:station:DISL:MHPA:1,2013-11-01T12:00:00Z,30.6671,-87.9365,4.259,3.18,1111122 
DISL,ioos:station:DISL:MHPA:1,2013-11-01T12:30:00Z,30.6671,-87.9365,4.169,3.16,1111122 
DISL,ioos:station:DISL:MHPA:1,2013-11-01T13:00:00Z,30.6671,-87.9365,4.037,3.18,1111122 
DISL,ioos:station:DISL:MHPA:1,2013-11-01T13:30:00Z,30.6671,-87.9365,3.856,3.26,1111122 
DISL,ioos:station:DISL:MHPA:1,2013-11-01T14:00:00Z,30.6671,-87.9365,3.71,3.26,1111122 
DISL,ioos:station:DISL:MHPA:1,2013-11-01T14:30:00Z,30.6671,-87.9365,3.659,3.26,1111122 
DISL,ioos:station:DISL:MHPA:1,2013-11-01T15:00:00Z,30.6671,-87.9365,3.599,3.18,1111122 
DISL,ioos:station:DISL:MHPA:1,2013-11-01T15:30:00Z,30.6671,-87.9365,3.592,3.22,1111122 
DISL,ioos:station:DISL:MHPA:1,2013-11-01T16:00:00Z,30.6671,-87.9365,3.515,3.18,1111122 
DISL,ioos:station:DISL:MHPA:1,2013-11-01T16:30:00Z,30.6671,-87.9365,3.653,3.23,1111122 
DISL,ioos:station:DISL:MHPA:1,2013-11-01T17:00:00Z,30.6671,-87.9365,3.767,3.25,1111122 
DISL,ioos:station:DISL:MHPA:1,2013-11-01T17:30:00Z,30.6671,-87.9365,3.754,3.28,1111122 
DISL,ioos:station:DISL:MHPA:1,2013-11-01T18:00:00Z,30.6671,-87.9365,3.744,3.3,1111122 
DISL,ioos:station:DISL:MHPA:1,2013-11-01T18:30:00Z,30.6671,-87.9365,3.728,3.23,1111122 
DISL,ioos:station:DISL:MHPA:1,2013-11-01T19:00:00Z,30.6671,-87.9365,3.774,3.29,1111122 
DISL,ioos:station:DISL:MHPA:1,2013-11-01T19:30:00Z,30.6671,-87.9365,3.858,3.26,1111122 
DISL,ioos:station:DISL:MHPA:1,2013-11-01T20:00:00Z,30.6671,-87.9365,4.059,3.19,1111122 
DISL,ioos:station:DISL:MHPA:1,2013-11-01T20:30:00Z,30.6671,-87.9365,4.279,3.27,1111122 
DISL,ioos:station:DISL:MHPA:1,2013-11-01T21:00:00Z,30.6671,-87.9365,4.448,3.27,1111122 
DISL,ioos:station:DISL:MHPA:1,2013-11-01T21:30:00Z,30.6671,-87.9365,4.562,3.28,1111122 
DISL,ioos:station:DISL:MHPA:1,2013-11-01T22:00:00Z,30.6671,-87.9365,4.761,3.27,1111122 
DISL,ioos:station:DISL:MHPA:1,2013-11-01T22:30:00Z,30.6671,-87.9365,4.85,3.28,1111122 
DISL,ioos:station:DISL:MHPA:1,2013-11-01T23:00:00Z,30.6671,-87.9365,4.858,3.28,1111122 
DISL,ioos:station:DISL:MHPA:1,2013-11-01T23:30:00Z,30.6671,-87.9365,4.907,3.21,1111122 
DISL,ioos:station:DISL:MHPA:1,2013-11-02T00:00:00Z,30.6671,-87.9365,4.982,3.21,1111122 
DISL,ioos:station:DISL:MHPA:1,2013-11-02T00:30:00Z,30.6671,-87.9365,5.047,3.24,1111122 
DISL,ioos:station:DISL:MHPA:1,2013-11-02T01:00:00Z,30.6671,-87.9365,5.085,3.27,1111122 
DISL,ioos:station:DISL:MHPA:1,2013-11-02T01:30:00Z,30.6671,-87.9365,5.161,3.27,1111122 
DISL,ioos:station:DISL:MHPA:1,2013-11-02T02:00:00Z,30.6671,-87.9365,5.171,3.27,1111122 
DISL,ioos:station:DISL:MHPA:1,2013-11-02T02:30:00Z,30.6671,-87.9365,5.185,3.23,1111122 
DISL,ioos:station:DISL:MHPA:1,2013-11-02T03:00:00Z,30.6671,-87.9365,5.167,3.23,1111122 
DISL,ioos:station:DISL:MHPA:1,2013-11-02T03:30:00Z,30.6671,-87.9365,5.136,3.27,1111122 
DISL,ioos:station:DISL:MHPA:1,2013-11-02T04:00:00Z,30.6671,-87.9365,5.133,3.23,1111122 
DISL,ioos:station:DISL:MHPA:1,2013-11-02T04:30:00Z,30.6671,-87.9365,5.023,3.21,1111122 
DISL,ioos:station:DISL:MHPA:1,2013-11-02T05:00:00Z,30.6671,-87.9365,4.898,3.21,1111122 
DISL,ioos:station:DISL:MHPA:1,2013-11-02T05:30:00Z,30.6671,-87.9365,4.793,3.24,1111122 
DISL,ioos:station:DISL:MHPA:1,2013-11-02T06:00:00Z,30.6671,-87.9365,4.686,3.21,1111122 
DISL,ioos:station:DISL:MHPA:1,2013-11-02T06:30:00Z,30.6671,-87.9365,4.538,3.25,1111122 
DISL,ioos:station:DISL:MHPA:1,2013-11-02T07:00:00Z,30.6671,-87.9365,4.386,3.32,1111122 
DISL,ioos:station:DISL:MHPA:1,2013-11-02T07:30:00Z,30.6671,-87.9365,4.276,3.29,1111122 
DISL,ioos:station:DISL:MHPA:1,2013-11-02T08:00:00Z,30.6671,-87.9365,4.16,3.24,1111122 
DISL,ioos:station:DISL:MHPA:1,2013-11-02T08:30:00Z,30.6671,-87.9365,4.06,3.28,1111122 
DISL,ioos:station:DISL:MHPA:1,2013-11-02T09:00:00Z,30.6671,-87.9365,3.953,3.27,1111122 
DISL,ioos:station:DISL:MHPA:1,2013-11-02T09:30:00Z,30.6671,-87.9365,3.839,3.31,1111122 
DISL,ioos:station:DISL:MHPA:1,2013-11-02T10:00:00Z,30.6671,-87.9365,3.758,3.34,1111122 
DISL,ioos:station:DISL:MHPA:1,2013-11-02T10:30:00Z,30.6671,-87.9365,3.684,3.42,1111122 
DISL,ioos:station:DISL:MHPA:1,2013-11-02T11:00:00Z,30.6671,-87.9365,3.586,3.41,1111122 
DISL,ioos:station:DISL:MHPA:1,2013-11-02T11:30:00Z,30.6671,-87.9365,3.484,3.35,1111122 
DISL,ioos:station:DISL:MHPA:1,2013-11-02T12:00:00Z,30.6671,-87.9365,3.417,3.33,1111122 
DISL,ioos:station:DISL:MHPA:1,2013-11-02T12:30:00Z,30.6671,-87.9365,3.356,3.36,1111122 
DISL,ioos:station:DISL:MHPA:1,2013-11-02T13:00:00Z,30.6671,-87.9365,3.293,3.31,1111122 
DISL,ioos:station:DISL:MHPA:1,2013-11-02T13:30:00Z,30.6671,-87.9365,3.281,3.37,1111122 
DISL,ioos:station:DISL:MHPA:1,2013-11-02T14:00:00Z,30.6671,-87.9365,3.322,3.33,1111122 
DISL,ioos:station:DISL:MHPA:1,2013-11-02T14:30:00Z,30.6671,-87.9365,3.34,3.33,1111122 
DISL,ioos:station:DISL:MHPA:1,2013-11-02T15:00:00Z,30.6671,-87.9365,3.315,3.46,1111122 
DISL,ioos:station:DISL:MHPA:1,2013-11-02T15:30:00Z,30.6671,-87.9365,3.39,3.48,1111122 
DISL,ioos:station:DISL:MHPA:1,2013-11-02T16:00:00Z,30.6671,-87.9365,3.454,3.44,1111122 
DISL,ioos:station:DISL:MHPA:1,2013-11-02T16:30:00Z,30.6671,-87.9365,3.409,3.47,1111122 
DISL,ioos:station:DISL:MHPA:1,2013-11-02T17:00:00Z,30.6671,-87.9365,3.518,3.38,1111122 
DISL,ioos:station:DISL:MHPA:1,2013-11-02T17:30:00Z,30.6671,-87.9365,3.624,3.35,1111122 
DISL,ioos:station:DISL:MHPA:1,2013-11-02T18:00:00Z,30.6671,-87.9365,3.676,3.42,1111122 
DISL,ioos:station:DISL:MHPA:1,2013-11-02T18:30:00Z,30.6671,-87.9365,3.809,3.46,1111122 
DISL,ioos:station:DISL:MHPA:1,2013-11-02T19:00:00Z,30.6671,-87.9365,3.883,3.4,1111122 
DISL,ioos:station:DISL:MHPA:1,2013-11-02T19:30:00Z,30.6671,-87.9365,3.983,3.47,1111122 
DISL,ioos:station:DISL:MHPA:1,2013-11-02T20:00:00Z,30.6671,-87.9365,4.047,3.45,1111122 
DISL,ioos:station:DISL:MHPA:1,2013-11-02T20:30:00Z,30.6671,-87.9365,4.073,3.43,1111122 
DISL,ioos:station:DISL:MHPA:1,2013-11-02T21:00:00Z,30.6671,-87.9365,4.103,3.51,1111122 
DISL,ioos:station:DISL:MHPA:1,2013-11-02T21:30:00Z,30.6671,-87.9365,4.111,3.5,1111122 
DISL,ioos:station:DISL:MHPA:1,2013-11-02T22:00:00Z,30.6671,-87.9365,4.067,3.57,1111122 
DISL,ioos:station:DISL:MHPA:1,2013-11-02T22:30:00Z,30.6671,-87.9365,4.021,3.52,1111122 
DISL,ioos:station:DISL:MHPA:1,2013-11-02T23:00:00Z,30.6671,-87.9365,4.023,3.43,1111122 
DISL,ioos:station:DISL:MHPA:1,2013-11-02T23:30:00Z,30.6671,-87.9365,4.035,3.5,1111122 
DISL,ioos:station:DISL:MHPA:1,2013-11-03T00:00:00Z,30.6671,-87.9365,4.039,3.49,1111122 
DISL,ioos:station:DISL:MHPA:1,2013-11-03T00:30:00Z,30.6671,-87.9365,4.043,3.54,1111122 
DISL,ioos:station:DISL:MHPA:1,2013-11-03T01:00:00Z,30.6671,-87.9365,4.077,3.6,1111122 
DISL,ioos:station:DISL:MHPA:1,2013-11-03T01:30:00Z,30.6671,-87.9365,4.06,3.6,1111122 
DISL,ioos:station:DISL:MHPA:1,2013-11-03T02:00:00Z,30.6671,-87.9365,4.022,3.64,1111122 
DISL,ioos:station:DISL:MHPA:1,2013-11-03T02:30:00Z,30.6671,-87.9365,3.974,3.67,1111122 
DISL,ioos:station:DISL:MHPA:1,2013-11-03T03:00:00Z,30.6671,-87.9365,3.872,3.65,1111122 
DISL,ioos:station:DISL:MHPA:1,2013-11-03T03:30:00Z,30.6671,-87.9365,3.774,3.67,1111122 
DISL,ioos:station:DISL:MHPA:1,2013-11-03T04:00:00Z,30.6671,-87.9365,3.694,3.67,1111122 
DISL,ioos:station:DISL:MHPA:1,2013-11-03T04:30:00Z,30.6671,-87.9365,3.588,3.75,1111122 
DISL,ioos:station:DISL:MHPA:1,2013-11-03T05:00:00Z,30.6671,-87.9365,3.492,3.76,1111122 
DISL,ioos:station:DISL:MHPA:1,2013-11-03T05:30:00Z,30.6671,-87.9365,3.401,3.75,1111122 
DISL,ioos:station:DISL:MHPA:1,2013-11-03T06:00:00Z,30.6671,-87.9365,3.35,3.7,1111122 
DISL,ioos:station:DISL:MHPA:1,2013-11-03T06:30:00Z,30.6671,-87.9365,3.307,3.76,1111122 
DISL,ioos:station:DISL:MHPA:1,2013-11-03T07:00:00Z,30.6671,-87.9365,3.275,3.82,1111122 
DISL,ioos:station:DISL:MHPA:1,2013-11-03T07:30:00Z,30.6671,-87.9365,3.235,3.8,1111122 
DISL,ioos:station:DISL:MHPA:1,2013-11-03T08:00:00Z,30.6671,-87.9365,3.179,3.81,1111122 
DISL,ioos:station:DISL:MHPA:1,2013-11-03T08:30:00Z,30.6671,-87.9365,3.112,3.83,1111122 
DISL,ioos:station:DISL:MHPA:1,2013-11-03T09:00:00Z,30.6671,-87.9365,3.007,3.86,1111122 
DISL,ioos:station:DISL:MHPA:1,2013-11-03T09:30:00Z,30.6671,-87.9365,2.893,3.8,1111122 
DISL,ioos:station:DISL:MHPA:1,2013-11-03T10:00:00Z,30.6671,-87.9365,2.783,3.77,1111122 
DISL,ioos:station:DISL:MHPA:1,2013-11-03T10:30:00Z,30.6671,-87.9365,2.687,3.9,1111122 
DISL,ioos:station:DISL:MHPA:1,2013-11-03T11:00:00Z,30.6671,-87.9365,2.603,3.85,1111122 
DISL,ioos:station:DISL:MHPA:1,2013-11-03T11:30:00Z,30.6671,-87.9365,2.525,3.97,1111122 
DISL,ioos:station:DISL:MHPA:1,2013-11-03T12:00:00Z,30.6671,-87.9365,2.444,3.86,1111122 
DISL,ioos:station:DISL:MHPA:1,2013-11-03T12:30:00Z,30.6671,-87.9365,2.369,3.85,1111122 
DISL,ioos:station:DISL:MHPA:1,2013-11-03T13:00:00Z,30.6671,-87.9365,2.305,3.84,1111122 
DISL,ioos:station:DISL:MHPA:1,2013-11-03T13:30:00Z,30.6671,-87.9365,2.26,3.82,1111122 
DISL,ioos:station:DISL:MHPA:1,2013-11-03T14:00:00Z,30.6671,-87.9365,2.242,3.79,1111122 
DISL,ioos:station:DISL:MHPA:1,2013-11-03T14:30:00Z,30.6671,-87.9365,2.246,3.78,1111122 
DISL,ioos:station:DISL:MHPA:1,2013-11-03T15:00:00Z,30.6671,-87.9365,2.27,3.81,1111122 
DISL,ioos:station:DISL:MHPA:1,2013-11-03T15:30:00Z,30.6671,-87.9365,2.321,3.88,1111122 
DISL,ioos:station:DISL:MHPA:1,2013-11-03T16:00:00Z,30.6671,-87.9365,2.43,3.89,1111122 
DISL,ioos:station:DISL:MHPA:1,2013-11-03T16:30:00Z,30.6671,-87.9365,2.588,3.98,1111122 
DISL,ioos:station:DISL:MHPA:1,2013-11-03T17:00:00Z,30.6671,-87.9365,2.789,3.94,1111122 
DISL,ioos:station:DISL:MHPA:1,2013-11-03T17:30:00Z,30.6671,-87.9365,2.984,4.04,1111122 
DISL,ioos:station:DISL:MHPA:1,2013-11-03T18:00:00Z,30.6671,-87.9365,3.16,4.0,1111122 
DISL,ioos:station:DISL:MHPA:1,2013-11-03T18:30:00Z,30.6671,-87.9365,3.305,3.97,1111122 
DISL,ioos:station:DISL:MHPA:1,2013-11-03T19:00:00Z,30.6671,-87.9365,3.403,3.96,1111122 
DISL,ioos:station:DISL:MHPA:1,2013-11-03T19:30:00Z,30.6671,-87.9365,3.496,3.93,1111122 
DISL,ioos:station:DISL:MHPA:1,2013-11-03T20:00:00Z,30.6671,-87.9365,3.581,3.87,1111122 
DISL,ioos:station:DISL:MHPA:1,2013-11-03T20:30:00Z,30.6671,-87.9365,3.692,3.94,1111122 
DISL,ioos:station:DISL:MHPA:1,2013-11-03T21:00:00Z,30.6671,-87.9365,3.803,4.01,1111122 
DISL,ioos:station:DISL:MHPA:1,2013-11-03T21:30:00Z,30.6671,-87.9365,3.871,3.96,1111122 
DISL,ioos:station:DISL:MHPA:1,2013-11-03T22:00:00Z,30.6671,-87.9365,3.941,3.99,1111122 
DISL,ioos:station:DISL:MHPA:1,2013-11-03T22:30:00Z,30.6671,-87.9365,4.013,3.95,1111122 
DISL,ioos:station:DISL:MHPA:1,2013-11-03T23:00:00Z,30.6671,-87.9365,4.08,3.89,1111122 
DISL,ioos:station:DISL:MHPA:1,2013-11-03T23:30:00Z,30.6671,-87.9365,4.109,3.89,1111122 
DISL,ioos:station:DISL:MHPA:1,2013-11-04T00:00:00Z,30.6671,-87.9365,4.202,3.92,1111122 
DISL,ioos:station:DISL:MHPA:1,2013-11-04T00:30:00Z,30.6671,-87.9365,4.273,3.86,1111122 
DISL,ioos:station:DISL:MHPA:1,2013-11-04T01:00:00Z,30.6671,-87.9365,4.322,3.93,1111122 
DISL,ioos:station:DISL:MHPA:1,2013-11-04T01:30:00Z,30.6671,-87.9365,4.404,3.86,1111122 
DISL,ioos:station:DISL:MHPA:1,2013-11-04T02:00:00Z,30.6671,-87.9365,4.478,3.85,1111122 
DISL,ioos:station:DISL:MHPA:1,2013-11-04T02:30:00Z,30.6671,-87.9365,4.583,3.87,1111122 
DISL,ioos:station:DISL:MHPA:1,2013-11-04T03:00:00Z,30.6671,-87.9365,4.657,3.82,1111122 
DISL,ioos:station:DISL:MHPA:1,2013-11-04T03:30:00Z,30.6671,-87.9365,4.723,3.87,1111122 
DISL,ioos:station:DISL:MHPA:1,2013-11-04T04:00:00Z,30.6671,-87.9365,4.742,3.76,1111122 
DISL,ioos:station:DISL:MHPA:1,2013-11-04T04:30:00Z,30.6671,-87.9365,4.752,3.76,1111122 
DISL,ioos:station:DISL:MHPA:1,2013-11-04T05:00:00Z,30.6671,-87.9365,4.744,3.77,1111122 
DISL,ioos:station:DISL:MHPA:1,2013-11-04T05:30:00Z,30.6671,-87.9365,4.693,3.82,1111122 
DISL,ioos:station:DISL:MHPA:1,2013-11-04T06:00:00Z,30.6671,-87.9365,4.634,3.85,1111122 
DISL,ioos:station:DISL:MHPA:1,2013-11-04T06:30:00Z,30.6671,-87.9365,4.525,3.81,1111122 
DISL,ioos:station:DISL:MHPA:1,2013-11-04T07:00:00Z,30.6671,-87.9365,4.413,3.86,1111122 
DISL,ioos:station:DISL:MHPA:1,2013-11-04T07:30:00Z,30.6671,-87.9365,4.293,3.87,1111122 
DISL,ioos:station:DISL:MHPA:1,2013-11-04T08:00:00Z,30.6671,-87.9365,4.159,3.93,1111122 
DISL,ioos:station:DISL:MHPA:1,2013-11-04T08:30:00Z,30.6671,-87.9365,4.039,3.95,1111122 
DISL,ioos:station:DISL:MHPA:1,2013-11-04T09:00:00Z,30.6671,-87.9365,3.908,3.98,1111122 
DISL,ioos:station:DISL:MHPA:1,2013-11-04T09:30:00Z,30.6671,-87.9365,3.752,3.91,1111122 
DISL,ioos:station:DISL:MHPA:1,2013-11-04T10:00:00Z,30.6671,-87.9365,3.614,3.86,1111122 
DISL,ioos:station:DISL:MHPA:1,2013-11-04T10:30:00Z,30.6671,-87.9365,3.486,3.88,1111122 
DISL,ioos:station:DISL:MHPA:1,2013-11-04T11:00:00Z,30.6671,-87.9365,3.371,3.94,1111122 
DISL,ioos:station:DISL:MHPA:1,2013-11-04T11:30:00Z,30.6671,-87.9365,3.247,3.89,1111122 
DISL,ioos:station:DISL:MHPA:1,2013-11-04T12:00:00Z,30.6671,-87.9365,3.121,3.88,1111122 
DISL,ioos:station:DISL:MHPA:1,2013-11-04T12:30:00Z,30.6671,-87.9365,3.001,3.81,1111122 
DISL,ioos:station:DISL:MHPA:1,2013-11-04T13:00:00Z,30.6671,-87.9365,2.893,3.78,1111122 
DISL,ioos:station:DISL:MHPA:1,2013-11-04T13:30:00Z,30.6671,-87.9365,2.79,3.79,1111122 
DISL,ioos:station:DISL:MHPA:1,2013-11-04T14:00:00Z,30.6671,-87.9365,2.694,3.78,1111122 
DISL,ioos:station:DISL:MHPA:1,2013-11-04T14:30:00Z,30.6671,-87.9365,2.603,3.77,1111122 
DISL,ioos:station:DISL:MHPA:1,2013-11-04T15:00:00Z,30.6671,-87.9365,2.556,3.78,1111122 
DISL,ioos:station:DISL:MHPA:1,2013-11-04T15:30:00Z,30.6671,-87.9365,2.526,3.82,1111122 
DISL,ioos:station:DISL:MHPA:1,2013-11-04T16:00:00Z,30.6671,-87.9365,2.504,3.81,1111122 
DISL,ioos:station:DISL:MHPA:1,2013-11-04T16:30:00Z,30.6671,-87.9365,2.502,3.87,1111122 
DISL,ioos:station:DISL:MHPA:1,2013-11-04T17:00:00Z,30.6671,-87.9365,2.478,3.93,1111122 
DISL,ioos:station:DISL:MHPA:1,2013-11-04T17:30:00Z,30.6671,-87.9365,2.467,3.93,1111122 
DISL,ioos:station:DISL:MHPA:1,2013-11-04T18:00:00Z,30.6671,-87.9365,2.484,3.94,1111122 
DISL,ioos:station:DISL:MHPA:1,2013-11-04T18:30:00Z,30.6671,-87.9365,2.538,3.83,1111122 
DISL,ioos:station:DISL:MHPA:1,2013-11-04T19:00:00Z,30.6671,-87.9365,2.664,3.82,1111122 
DISL,ioos:station:DISL:MHPA:1,2013-11-04T19:30:00Z,30.6671,-87.9365,2.834,3.81,1111122 
DISL,ioos:station:DISL:MHPA:1,2013-11-04T20:00:00Z,30.6671,-87.9365,2.989,3.93,1111122 
DISL,ioos:station:DISL:MHPA:1,2013-11-04T20:30:00Z,30.6671,-87.9365,3.087,3.93,1111122 
DISL,ioos:station:DISL:MHPA:1,2013-11-04T21:00:00Z,30.6671,-87.9365,3.165,3.93,1111122 
DISL,ioos:station:DISL:MHPA:1,2013-11-04T21:30:00Z,30.6671,-87.9365,3.249,3.79,1111122 
DISL,ioos:station:DISL:MHPA:1,2013-11-04T22:00:00Z,30.6671,-87.9365,3.34,3.8,1111122 
DISL,ioos:station:DISL:MHPA:1,2013-11-04T22:30:00Z,30.6671,-87.9365,3.435,3.84,1111122 
DISL,ioos:station:DISL:MHPA:1,2013-11-04T23:00:00Z,30.6671,-87.9365,3.545,3.87,1111122 
DISL,ioos:station:DISL:MHPA:1,2013-11-04T23:30:00Z,30.6671,-87.9365,3.634,3.84,1111122 
DISL,ioos:station:DISL:MHPA:1,2013-11-05T00:00:00Z,30.6671,-87.9365,3.741,3.73,1111122 
DISL,ioos:station:DISL:MHPA:1,2013-11-05T00:30:00Z,30.6671,-87.9365,3.808,3.79,1111122 
DISL,ioos:station:DISL:MHPA:1,2013-11-05T01:00:00Z,30.6671,-87.9365,3.916,3.84,1111122 
DISL,ioos:station:DISL:MHPA:1,2013-11-05T01:30:00Z,30.6671,-87.9365,4.037,3.83,1111122 
DISL,ioos:station:DISL:MHPA:1,2013-11-05T02:00:00Z,30.6671,-87.9365,4.113,3.78,1111122 
DISL,ioos:station:DISL:MHPA:1,2013-11-05T02:30:00Z,30.6671,-87.9365,4.23,3.79,1111122 
DISL,ioos:station:DISL:MHPA:1,2013-11-05T03:00:00Z,30.6671,-87.9365,4.358,3.8,1111122 
DISL,ioos:station:DISL:MHPA:1,2013-11-05T03:30:00Z,30.6671,-87.9365,4.481,3.79,1111122 
DISL,ioos:station:DISL:MHPA:1,2013-11-05T04:00:00Z,30.6671,-87.9365,4.595,3.85,1111122 
DISL,ioos:station:DISL:MHPA:1,2013-11-05T04:30:00Z,30.6671,-87.9365,4.651,3.79,1111122 
DISL,ioos:station:DISL:MHPA:1,2013-11-05T05:00:00Z,30.6671,-87.9365,4.764,3.72,1111122 
DISL,ioos:station:DISL:MHPA:1,2013-11-05T05:30:00Z,30.6671,-87.9365,4.847,3.7,1111122 
DISL,ioos:station:DISL:MHPA:1,2013-11-05T06:00:00Z,30.6671,-87.9365,4.861,3.71,1111122 
DISL,ioos:station:DISL:MHPA:1,2013-11-05T06:30:00Z,30.6671,-87.9365,4.856,3.7,1111122 
DISL,ioos:station:DISL:MHPA:1,2013-11-05T07:00:00Z,30.6671,-87.9365,4.796,3.66,1111122 
DISL,ioos:station:DISL:MHPA:1,2013-11-05T07:30:00Z,30.6671,-87.9365,4.642,3.69,1111122 
DISL,ioos:station:DISL:MHPA:1,2013-11-05T08:00:00Z,30.6671,-87.9365,4.521,3.67,1111122 
DISL,ioos:station:DISL:MHPA:1,2013-11-05T08:30:00Z,30.6671,-87.9365,4.535,3.76,1111122 
DISL,ioos:station:DISL:MHPA:1,2013-11-05T09:00:00Z,30.6671,-87.9365,4.439,3.71,1111122 
DISL,ioos:station:DISL:MHPA:1,2013-11-05T09:30:00Z,30.6671,-87.9365,4.315,3.7,1111122 
DISL,ioos:station:DISL:MHPA:1,2013-11-05T10:00:00Z,30.6671,-87.9365,4.19,3.72,1111122 
DISL,ioos:station:DISL:MHPA:1,2013-11-05T10:30:00Z,30.6671,-87.9365,4.084,3.69,1111122 
DISL,ioos:station:DISL:MHPA:1,2013-11-05T11:00:00Z,30.6671,-87.9365,3.934,3.7,1111122 
DISL,ioos:station:DISL:MHPA:1,2013-11-05T11:30:00Z,30.6671,-87.9365,3.852,3.73,1111122 
DISL,ioos:station:DISL:MHPA:1,2013-11-05T12:00:00Z,30.6671,-87.9365,3.793,3.72,1111122 
DISL,ioos:station:DISL:MHPA:1,2013-11-05T12:30:00Z,30.6671,-87.9365,3.65,3.73,1111122 
DISL,ioos:station:DISL:MHPA:1,2013-11-05T13:00:00Z,30.6671,-87.9365,3.45,3.74,1111122 
DISL,ioos:station:DISL:MHPA:1,2013-11-05T13:30:00Z,30.6671,-87.9365,3.285,3.69,1111122 
DISL,ioos:station:DISL:MHPA:1,2013-11-05T14:00:00Z,30.6671,-87.9365,3.176,3.72,1111122 
DISL,ioos:station:DISL:MHPA:1,2013-11-05T14:30:00Z,30.6671,-87.9365,3.068,3.75,1111122 
DISL,ioos:station:DISL:MHPA:1,2013-11-05T15:00:00Z,30.6671,-87.9365,3.038,3.64,1111122 
DISL,ioos:station:DISL:MHPA:1,2013-11-05T15:30:00Z,30.6671,-87.9365,3.049,3.67,1111122 
DISL,ioos:station:DISL:MHPA:1,2013-11-05T16:00:00Z,30.6671,-87.9365,3.119,3.65,1111122 
DISL,ioos:station:DISL:MHPA:1,2013-11-05T16:30:00Z,30.6671,-87.9365,3.086,3.74,1111122 
DISL,ioos:station:DISL:MHPA:1,2013-11-05T17:00:00Z,30.6671,-87.9365,3.036,3.84,1111122 
DISL,ioos:station:DISL:MHPA:1,2013-11-05T17:30:00Z,30.6671,-87.9365,3.142,3.84,1111122 
DISL,ioos:station:DISL:MHPA:1,2013-11-05T18:00:00Z,30.6671,-87.9365,3.154,3.85,1111122 
DISL,ioos:station:DISL:MHPA:1,2013-11-05T18:30:00Z,30.6671,-87.9365,3.19,3.69,1111122 
DISL,ioos:station:DISL:MHPA:1,2013-11-05T19:00:00Z,30.6671,-87.9365,3.179,3.73,1111122 
DISL,ioos:station:DISL:MHPA:1,2013-11-05T19:30:00Z,30.6671,-87.9365,3.252,3.76,1111122 
DISL,ioos:station:DISL:MHPA:1,2013-11-05T20:00:00Z,30.6671,-87.9365,3.364,3.78,1111122 
DISL,ioos:station:DISL:MHPA:1,2013-11-05T20:30:00Z,30.6671,-87.9365,3.492,3.83,1111122 
DISL,ioos:station:DISL:MHPA:1,2013-11-05T21:00:00Z,30.6671,-87.9365,3.597,3.7,1111122 
DISL,ioos:station:DISL:MHPA:1,2013-11-05T21:30:00Z,30.6671,-87.9365,3.699,3.75,1111122 
DISL,ioos:station:DISL:MHPA:1,2013-11-05T22:00:00Z,30.6671,-87.9365,3.754,3.83,1111122 
DISL,ioos:station:DISL:MHPA:1,2013-11-05T22:30:00Z,30.6671,-87.9365,3.8,3.8,1111122 
DISL,ioos:station:DISL:MHPA:1,2013-11-05T23:00:00Z,30.6671,-87.9365,3.843,3.76,1111122 
DISL,ioos:station:DISL:MHPA:1,2013-11-05T23:30:00Z,30.6671,-87.9365,3.982,3.75,1111122 
DISL,ioos:station:DISL:MHPA:1,2013-11-06T00:00:00Z,30.6671,-87.9365,4.097,3.72,1111122 
DISL,ioos:station:DISL:MHPA:1,2013-11-06T00:30:00Z,30.6671,-87.9365,4.162,3.71,1111122 
DISL,ioos:station:DISL:MHPA:1,2013-11-06T01:00:00Z,30.6671,-87.9365,4.22,3.71,1111122 
DISL,ioos:station:DISL:MHPA:1,2013-11-06T01:30:00Z,30.6671,-87.9365,4.259,3.8,1111122 
DISL,ioos:station:DISL:MHPA:1,2013-11-06T02:00:00Z,30.6671,-87.9365,4.322,3.81,1111122 
DISL,ioos:station:DISL:MHPA:1,2013-11-06T02:30:00Z,30.6671,-87.9365,4.427,3.76,1111122 
DISL,ioos:station:DISL:MHPA:1,2013-11-06T03:00:00Z,30.6671,-87.9365,4.505,3.8,1111122 
DISL,ioos:station:DISL:MHPA:1,2013-11-06T03:30:00Z,30.6671,-87.9365,4.62,3.73,1111122 
DISL,ioos:station:DISL:MHPA:1,2013-11-06T04:00:00Z,30.6671,-87.9365,4.753,3.7,1111122 
DISL,ioos:station:DISL:MHPA:1,2013-11-06T04:30:00Z,30.6671,-87.9365,4.861,3.67,1111122 
DISL,ioos:station:DISL:MHPA:1,2013-11-06T05:00:00Z,30.6671,-87.9365,4.932,3.62,1111122 
DISL,ioos:station:DISL:MHPA:1,2013-11-06T05:30:00Z,30.6671,-87.9365,5.029,3.63,1111122 
DISL,ioos:station:DISL:MHPA:1,2013-11-06T06:00:00Z,30.6671,-87.9365,5.008,3.48,1111122 
DISL,ioos:station:DISL:MHPA:1,2013-11-06T06:30:00Z,30.6671,-87.9365,5.007,3.65,1111122 
DISL,ioos:station:DISL:MHPA:1,2013-11-06T07:00:00Z,30.6671,-87.9365,5.074,3.7,1111122 
DISL,ioos:station:DISL:MHPA:1,2013-11-06T07:30:00Z,30.6671,-87.9365,5.082,3.63,1111122 
DISL,ioos:station:DISL:MHPA:1,2013-11-06T08:00:00Z,30.6671,-87.9365,5.016,3.61,1111122 
DISL,ioos:station:DISL:MHPA:1,2013-11-06T08:30:00Z,30.6671,-87.9365,4.976,3.69,1111122 
DISL,ioos:station:DISL:MHPA:1,2013-11-06T09:00:00Z,30.6671,-87.9365,4.897,3.72,1111122 
DISL,ioos:station:DISL:MHPA:1,2013-11-06T09:30:00Z,30.6671,-87.9365,4.765,3.68,1111122 
DISL,ioos:station:DISL:MHPA:1,2013-11-06T10:00:00Z,30.6671,-87.9365,4.654,3.68,1111122 
DISL,ioos:station:DISL:MHPA:1,2013-11-06T10:30:00Z,30.6671,-87.9365,4.544,3.69,1111122 
DISL,ioos:station:DISL:MHPA:1,2013-11-06T11:00:00Z,30.6671,-87.9365,4.365,3.64,1111122 
DISL,ioos:station:DISL:MHPA:1,2013-11-06T11:30:00Z,30.6671,-87.9365,4.25,3.64,1111122 
DISL,ioos:station:DISL:MHPA:1,2013-11-06T12:00:00Z,30.6671,-87.9365,4.179,3.61,1111122 
DISL,ioos:station:DISL:MHPA:1,2013-11-06T12:30:00Z,30.6671,-87.9365,4.054,3.57,1111122 
DISL,ioos:station:DISL:MHPA:1,2013-11-06T13:00:00Z,30.6671,-87.9365,3.904,3.61,1111122 
DISL,ioos:station:DISL:MHPA:1,2013-11-06T13:30:00Z,30.6671,-87.9365,3.798,3.58,1111122 
DISL,ioos:station:DISL:MHPA:1,2013-11-06T14:00:00Z,30.6671,-87.9365,3.67,3.6,1111122 
DISL,ioos:station:DISL:MHPA:1,2013-11-06T14:30:00Z,30.6671,-87.9365,3.567,3.61,1111122 
DISL,ioos:station:DISL:MHPA:1,2013-11-06T15:00:00Z,30.6671,-87.9365,3.497,3.67,1111122 
DISL,ioos:station:DISL:MHPA:1,2013-11-06T15:30:00Z,30.6671,-87.9365,3.432,3.61,1111122 